Flag for Canada Weather past 2 weeks in Clarington, Ontario, Canada

Now
43 °F

Overcast.


Feels Like: 37 °F
Forecast: 35 / 44 °F
Wind: 10 mph from South

Location: Peterborough Airport

Current Time: Dec 27, 2014 at 1:11:26 PM

Latest Report: Dec 27, 2014 at 12:00 PM


Visibility: 9 mi

Pressure: 30.07 "Hg

Humidity: 87%

Dew point: 39 °F

Location of ClaringtonLocation

Historic Weather in Clarington — Graph

°F

Clarington temperature yesterday

Maximum temperature yesterday: 41 °F (at 3:00 PM)
Minimum temperature yesterday: 27 °F (at 11:00 PM)
Average temperature yesterday: 36 °F

Past Weeks' High & Low Weather Summary

 TemperatureHumidityPressure
High50 °F (Dec 24, 11:00 PM)100% (Dec 12, 7:00 PM)30.35 "Hg (Dec 12, 7:00 PM)
Low12 °F (Dec 20, 7:00 AM)51% (Dec 20, 3:00 PM)29.18 "Hg (Dec 25, 12:50 AM)
Average32 °F92%30.00 "Hg
* Reported Dec 12 12:00 Noon — Dec 27 12:00 Noon, Clarington, Weather by CustomWeather, © 2014

Note: Actual official high and low records may vary slightly from our data, if they occured in-between our weather recording intervals... More about our weather records

Advertising

Clarington weather history for previous 24 hours

 ConditionsComfort  
Time TempWeatherWind HumidityBarometerVisibility
12:00 PM
Dec 27
43 °FOvercast.10 mph87%30.07 "Hg9 mi
11:00 AM41 °FMostly cloudy.8 mph87%30.11 "Hg9 mi
10:00 AM39 °FFog.6 mph93%30.13 "Hg5 mi
9:00 AM37 °FFog.7 mph100%30.13 "Hg5 mi
8:00 AM36 °FFog.3 mph100%30.14 "Hg4 mi
7:00 AM36 °FFog.5 mph100%30.14 "Hg5 mi
6:46 AM36 °FFog.2 mph100%30.14 "Hg5 mi
6:00 AM34 °FFog.No wind100%30.14 "Hg5 mi
5:59 AM34 °FFog.No wind100%30.14 "Hg5 mi
5:00 AM34 °FFog.2 mph100%30.14 "Hg6 mi
4:00 AM34 °FOvercast.No wind100%30.15 "Hg8 mi
3:00 AM34 °FOvercast.No wind100%30.15 "Hg8 mi
2:02 AM32 °FIce fog.No wind100%30.14 "Hg6 mi
1:00 AM30 °FOvercast.2 mph100%30.14 "Hg7 mi
12:00 AM28 °FOvercast.No wind100%30.13 "Hg9 mi
11:00 PM
Dec 26
27 °FPartly cloudy.No wind100%30.14 "Hg8 mi
10:00 PM28 °FPassing clouds.3 mph100%30.13 "Hg7 mi
9:00 PM28 °FPassing clouds.No wind100%30.13 "Hg8 mi
8:00 PM30 °FOvercast.No wind100%30.13 "Hg9 mi
7:00 PM32 °FMostly cloudy.No wind100%30.13 "Hg9 mi
6:00 PM36 °FPassing clouds.3 mph93%30.12 "Hg9 mi
5:00 PM37 °FPassing clouds.No wind87%30.11 "Hg9 mi
4:00 PM41 °FPassing clouds.5 mph76%30.10 "Hg9 mi
3:00 PM41 °FMore clouds than sun.8 mph81%30.09 "Hg9 mi
2:00 PM39 °FOvercast.9 mph81%30.10 "Hg9 mi
1:00 PM39 °FOvercast.8 mph81%30.12 "Hg9 mi
Weather by CustomWeather, © 2014

See weather overviewHow to use our weather pages